Preview of NWS' New Version of Forecast
This preview is not operational and should not be used for support decisions.

Regional Weather Roundup (RWR)

Issued by National Weather Service (NWS)

                            
000
ASUS46 KPQR 201110
RWROR 

OREGON REGIONAL WEATHER ROUNDUP
NATIONAL WEATHER SERVICE PORTLAND OR
400 AM PDT TUE AUG 20 2019

NOTE: "FAIR" INDICATES FEW OR NO CLOUDS BELOW 12,000 FEET WITH
NO SIGNIFICANT WEATHER AND/OR OBSTRUCTIONS TO VISIBILITY.

ORZ001>013-201200-
NORTHWEST OREGON

  
CITY           SKY/WX    TMP DP  RH WIND       PRES   REMARKS
ASTORIA        CLEAR     53  51  93 S5        29.92F                  
TILLAMOOK      CLEAR     50  48  93 CALM      29.95S                  
NEWPORT        CLEAR     52  50  93 CALM      29.98S                  
FLORENCE       FAIR      52  50  93 CALM      29.96S                  
PORTLAND       CLEAR     62  57  83 CALM      29.93F                  
VANCOUVER WA   CLEAR     59  54  83 CALM      29.93S                  
SCAPPOOSE      CLEAR     55  53  93 W3        29.93S                  
HILLSBORO      CLEAR     53  51  93 CALM      29.93F                  
AURORA         CLEAR     59  53  80 CALM      29.94F                  
MCMINNVILLE    CLEAR     56  54  93 CALM      29.93S                  
SALEM          CLEAR     56  52  86 CALM      29.93S                  
CORVALLIS      CLEAR     56  53  90 W3        29.95S                  
EUGENE         CLEAR     54  49  83 CALM      29.95S                  
CRESWELL       PTCLDY    57  55  94 CALM      29.94S                  
$$

ORZ021-028-201200-
SOUTHWEST OREGON

  
CITY           SKY/WX    TMP DP  RH WIND       PRES   REMARKS
NORTH BEND     PTCLDY    55  55 100 SE6       29.99R                  
BROOKINGS      LGT RAIN  52  52 100 VRB3      29.99S VSB 1/2          
ROSEBURG       CLEAR     63  56  78 CALM      29.95S                  
SEXTON SUMMIT  CLEAR     61  52  72 S7        30.05R                  
GRANTS PASS    FAIR      63  54  72 CALM      29.98R                  
MEDFORD        CLEAR     65  51  60 CALM      29.95S                  
$$

ORZ014>016-041-201200-
COLUMBIA GORGE

  
CITY           SKY/WX    TMP DP  RH WIND       PRES   REMARKS
TROUTDALE      CLEAR     58  53  84 CALM      29.94S                  
HOOD RIVER     CLEAR     54  46  76 CALM      29.94R                  
THE DALLES     CLEAR     60  50  69 E6        29.90R                  
$$

ORZ029>031-041-044-049-050-061>064-502-503-505>511-201200-
EASTERN OREGON

  
CITY           SKY/WX    TMP DP  RH WIND       PRES   REMARKS
MADRAS         CLEAR     54  46  76 SE7       30.00S                  
REDMOND        CLEAR     55  45  68 S6        30.01S                  
BEND           CLEAR     59  46  63 S6        30.03R                  
PRINEVILLE     CLEAR     54  46  76 CALM      30.02R                  
KLAMATH FALLS  CLEAR     52  45  77 E3        30.08R                  
LAKEVIEW       CLEAR     41  31  67 N6        30.13R                  
HERMISTON      PTCLDY    59  48  67 CALM      29.89R                  
PENDLETON      CLEAR     62  45  53 CALM      29.93R                  
JOHN DAY       PTCLDY    59  41  50 SE9       30.05S                  
MEACHAM        CLEAR     44  39  82 CALM      30.05S                  
LA GRANDE      PTCLDY    53  45  74 CALM      30.02R                  
BAKER CITY     PTCLDY    53  46  77 CALM      30.04R                  
BURNS          PTCLDY    52  36  54 NW5       30.04S                  
ROME             N/A     57  22  25 SE3       30.02S                  
ONTARIO        PTCLDY    67  47  48 CALM      29.92S                  
$$